Regional Weather Roundup
Issued by NWS

Home | Current Version | Previous Version | Graphics & Text | Print | Product List | Glossary On
Versions: 1 2 3 4 5 6 7 8 9 10 11 12 13 14 15 16 17 18 19 20 21 22 23 24 25 26 27 28 29 30 31 32 33 34 35 36 37 38 39 40 41 42 43 44 45 46 47 48 49 50
000
ASUS43 KBIS 010602
RWRND

NORTH DAKOTA REGIONAL WEATHER ROUNDUP
NATIONAL WEATHER SERVICE BISMARCK ND
100 AM CDT SUN MAY 01 2016

NOTE: "FAIR" INDICATES FEW OR NO CLOUDS BELOW 12,000 FEET WITH NO
SIGNIFICANT WEATHER AND/OR OBSTRUCTIONS TO VISIBILITY.


NDZ001>003-009>011-017-010700-
NORTHWEST NORTH DAKOTA

CITY           SKY/WX    TMP DP  RH WIND       PRES   REMARKS
WILLISTON      CLEAR     40  30  67 N12       30.32R
6HR MIN TEMP:  39; 6HR MAX TEMP:  63;

MINOT          CLEAR     41  27  57 NW8       30.31R
MINOT AFB      CLEAR     42  29  59 N6        30.30S
$$

NDZ018>021-031>035-040>046-010700-
SOUTHWEST NORTH DAKOTA

CITY           SKY/WX    TMP DP  RH WIND       PRES   REMARKS
BISMARCK       CLEAR     40  32  73 N6        30.28R
6HR MIN TEMP:  36; 6HR MAX TEMP:  59;

DICKINSON      CLEAR     34  26  72 W5        30.27S
GARRISON         N/A     37  29  72 N6        30.29S
6HR MIN TEMP:  37; 6HR MAX TEMP:  59;

HETTINGER ARPT CLEAR     31  25  78 CALM      30.29R
$$

NDZ004>008-012>016-024-026-027-054-010700-
NORTHEAST NORTH DAKOTA

CITY           SKY/WX    TMP DP  RH WIND       PRES   REMARKS
GRAND FORKS    CLEAR     47  28  47 NE9       30.26R
GRND FRKS AFB  CLEAR     42  26  53 NE5       30.26S
DEVILS LAKE    CLEAR     37  31  78 N9        30.29S
$$

NDZ022-023-025-028>030-036>039-047>053-010700-
SOUTHEAST NORTH DAKOTA

CITY           SKY/WX    TMP DP  RH WIND       PRES   REMARKS
FARGO          CLEAR     46  27  47 NE8       30.22R
6HR MIN TEMP:  46; 6HR MAX TEMP:  61;

JAMESTOWN      CLEAR     37  28  70 N8        30.24R
$$





USA.gov is the U.S. government's official web portal to all federal, state and local government web resources and services.